# Land Stadt Wetter Temperatur Luftdruck Luftfeuchtigkeit Sichtweite Windgeschwindigkeit Windrichtung Ortszeit
1 nz Wellington -273 0 0 0 0 0 02.08.2018 14:23
2 bo La Paz -273 0 0 0 0 0 02.08.2018 14:22
3 is Reykjavik -273 0 0 0 0 0 02.08.2018 14:22
4 ar Ushuaia -273 0 0 0 0 0 02.08.2018 14:22
5 au Alice Springs -273 0 0 0 0 0 02.08.2018 14:21
6 cn Lhasa -273 0 0 0 0 0 02.08.2018 14:22
7 cd Kisangani -273 0 0 0 0 0 02.08.2018 14:23
8 ru Werchojansk Clouds -14 1009 81 0 4 156 02.08.2018 14:22
9 ru Jakutsk Clouds -7 1010 95 0 8 265 02.08.2018 14:22
10 us Fairbanks Clear -6 1019 73 16093 11 70 02.08.2018 14:23
11 mn Uliastai Clear -4 1029 38 0 3 189 02.08.2018 14:23
12 gl Nuuk Clouds -3 1012 73 10000 30 30 02.08.2018 14:22
13 fi Rovaniemi Fog 0 1007 97 10000 5 290 02.08.2018 14:21
14 us Nome Clouds 1 1011 80 16093 18 70 02.08.2018 14:23
15 in Jagatsukh Clouds 1 1018 75 0 7 223 02.08.2018 14:22
16 ru Anadyr Clear 2 993 93 10000 18 110 02.08.2018 14:23
17 us Chicago Clear 2 1017 67 16093 11 276 02.08.2018 14:23
18 mn Ulaanbaatar Clear 3 1032 25 10000 7 210 02.08.2018 14:23
19 no Hammerfest Clouds 3 1010 86 10000 8 170 02.08.2018 14:22
20 ru Amderma Clouds 3 1002 87 0 21 50 02.08.2018 14:23
21 us Denver Clear 5 1016 19 16093 9 245 02.08.2018 14:21
22 fi Helsinki Rain 6 1005 93 4500 22 40 02.08.2018 14:21
23 bo Potisi Clouds 6 1018 56 0 6 21 02.08.2018 14:22
24 us Death Valley Clouds 7 1011 24 0 3 299 02.08.2018 14:22
25 pe Cusco Clouds 7 1031 87 10000 5 100 02.08.2018 14:23
26 ru Surgut Rain 7 997 91 0 23 194 02.08.2018 14:23
27 ar Esquel Clear 7 1029 24 10000 24 50 02.08.2018 14:22
28 ca Montreal Clouds 8 1012 81 14484 8 160 02.08.2018 14:22
29 ar Buenos Aires Clear 8 1029 61 10000 22 150 02.08.2018 14:22
30 se Stockholm Rain 9 1003 93 10000 18 30 02.08.2018 14:23
31 no Oslo Clouds 9 1009 81 10000 11 360 02.08.2018 14:23
32 gb Glasgow Clouds 10 1008 87 10000 9 90 02.08.2018 14:21
33 uy Montevideo Clouds 10 1028 57 10000 24 150 02.08.2018 14:22
34 cn Peking Clear 11 1035 33 10000 7 160 02.08.2018 14:23
35 ru Moskau Rain 11 1015 76 10000 11 190 02.08.2018 14:22
36 gb Manchester Fog 11 1008 82 10000 5 0 02.08.2018 14:21
37 gb London Rain 12 1008 87 10000 17 70 02.08.2018 14:22
38 ie Dublin Rain 12 1004 87 10000 17 140 02.08.2018 14:21
39 cl Santiago Clouds 12 1015 81 8000 17 140 02.08.2018 14:23
40 kr Seoul Clear 13 1026 71 10000 4 160 02.08.2018 14:21
41 us Las Vegas Clouds 13 1012 34 16093 5 360 02.08.2018 14:21
42 us Los Angeles Rain 14 1013 72 16093 6 129 02.08.2018 14:22
43 us New York Clouds 14 1016 82 16093 3 296 02.08.2018 14:22
44 mx Mexiko Stadt Clear 14 1026 82 11265 8 300 02.08.2018 14:21
45 de Emden Clouds 15 1014 87 10000 5 90 02.08.2018 14:21
46 de Helgoland Clouds 15 1015 76 10000 9 260 02.08.2018 14:22
47 de Flensburg Clouds 15 1014 72 10000 17 310 02.08.2018 14:21
48 us Tucson Clear 16 1013 31 16093 5 80 02.08.2018 14:21
49 de Hamburg Clouds 16 1015 72 10000 9 260 02.08.2018 14:21
50 jp Tokio Rain 16 1018 88 6000 35 340 02.08.2018 14:22
51 pt Lissabon Rain 16 1016 93 10000 11 260 02.08.2018 14:22
52 au Perth Clouds 16 1020 59 10000 26 210 02.08.2018 14:21
53 at Wien Fog 16 1020 93 6000 15 140 02.08.2018 14:22
54 at Innsbruck Clear 17 1018 76 10000 5 90 02.08.2018 14:23
55 de Bremen Clouds 17 1015 67 10000 4 0 02.08.2018 14:22
56 es Madrid Rain 17 1014 77 10000 37 230 02.08.2018 14:23
57 ch Bern Clear 18 1017 72 10000 5 0 02.08.2018 14:23
58 ch Andermatt Clear 18 1018 72 0 4 0 02.08.2018 14:23
59 de Hiddensee Clouds 18 1019 70 0 2 292 02.08.2018 14:21
60 au Sydney Rain 18 1014 77 10000 21 30 02.08.2018 14:22
61 it Mailand Mist 18 1023 77 10000 8 350 02.08.2018 14:21
62 de Hannover Clouds 18 1015 68 10000 4 0 02.08.2018 14:21
63 de Oberstdorf Clouds 19 1017 100 10000 9 280 02.08.2018 14:21
64 jp Nagasaki Clouds 19 1020 68 10000 30 10 02.08.2018 14:21
65 de Braunschweig Clouds 19 1015 68 10000 8 330 02.08.2018 14:21
66 ec San Cristobal Clouds 19 1013 88 0 20 174 02.08.2018 14:22
67 de Trier Clouds 19 1013 72 10000 18 150 02.08.2018 14:21
68 de Torfhaus Clouds 20 1015 68 10000 8 330 02.08.2018 14:22
69 cn Shanghai Clouds 20 1027 77 10000 32 20 02.08.2018 14:21
70 ad Andorra la Vella Clouds 20 1011 57 0 2 100 02.08.2018 14:22
71 es Sevilla Rain 20 1017 68 10000 11 250 02.08.2018 14:22
72 de Köln Clear 20 1012 64 10000 13 120 02.08.2018 14:21
73 de München Clear 20 1016 52 10000 11 80 02.08.2018 14:21
74 ke Nairobi Clouds 21 1022 68 10000 13 110 02.08.2018 14:22
75 ma Casablanca Drizzle 21 1021 73 10000 21 220 02.08.2018 14:23
76 za Kapstadt Clouds 21 1016 64 10000 21 300 02.08.2018 14:22
77 bg Warna Clear 21 1023 64 10000 13 120 02.08.2018 14:21
78 de Kassel Clear 21 1014 60 10000 11 130 02.08.2018 14:21
79 de Freiburg Clear 21 1015 60 10000 8 230 02.08.2018 14:22
80 de Nürnberg Haze 21 1016 60 10000 4 0 02.08.2018 14:21
81 de Frankfurt Clear 21 1014 56 10000 13 200 02.08.2018 14:22
82 es Tarifa Rain 21 1017 73 10000 18 270 02.08.2018 14:21
83 fr Bordeaux Rain 21 1006 73 10000 21 140 02.08.2018 14:21
84 fr Paris Clear 21 1008 60 10000 21 160 02.08.2018 14:22
85 de Magdeburg Clouds 21 1015 61 0 5 61 02.08.2018 14:22
86 de Dresden Clear 22 1017 60 10000 15 140 02.08.2018 14:22
87 de Berlin Clouds 22 1016 64 10000 13 270 02.08.2018 14:21
88 ma Marrakesch Clouds 22 1022 60 10000 8 190 02.08.2018 14:23
89 de Stuttgart Clear 22 1016 56 10000 2 0 02.08.2018 14:22
90 es Las Palmas de Gran Canaria Clouds 22 1021 64 10000 33 20 02.08.2018 14:21
91 et Addis Abeba Clouds 22 1026 40 10000 33 100 02.08.2018 14:23
92 tr Istanbul Clear 22 1022 64 10000 8 220 02.08.2018 14:23
93 ck Avarua Clouds 22 1015 73 10000 8 110 02.08.2018 14:22
94 it Rom Clouds 22 1022 60 10000 4 0 02.08.2018 14:23
95 br Manaus Rain 23 1011 94 10000 4 130 02.08.2018 14:21
96 es Barcelona Clouds 23 1015 73 10000 22 70 02.08.2018 14:22
97 fr Nizza Clouds 23 1020 73 10000 24 80 02.08.2018 14:22
98 mx Veracruz Clear 23 1012 80 0 5 305 02.08.2018 14:21
99 bg Sofia Clear 23 1024 52 10000 4 0 02.08.2018 14:21
100 tr Ankara Clouds 24 1025 13 10000 4 0 02.08.2018 14:23
101 ua Kiew Clear 24 1021 33 10000 18 230 02.08.2018 14:21
102 us Miami Clouds 24 1016 74 16093 7 84 02.08.2018 14:23
103 it Palermo Clouds 24 1021 78 10000 13 20 02.08.2018 14:22
104 sb Honiara Clouds 25 1012 94 0 26 143 02.08.2018 14:22
105 bs Nassau Clouds 25 1016 83 10000 5 90 02.08.2018 14:22
106 do Santo Domingo Clouds 25 1013 100 10000 6 356 02.08.2018 14:21
107 pg Port Moresby Clouds 26 1012 83 10000 18 150 02.08.2018 14:21
108 gr Athen Clear 26 1019 30 10000 13 340 02.08.2018 14:22
109 br Rio de Janeiro Clear 26 1012 83 10000 8 360 02.08.2018 14:22
110 us Honolulu Clouds 26 1015 65 16093 11 60 02.08.2018 14:22
111 af Kabul Clear 26 1023 7 10000 9 360 02.08.2018 14:21
112 fj Suva Clouds 26 1012 83 10000 9 50 02.08.2018 14:21
113 es Palma de Mallorca Clear 27 1015 54 10000 5 0 02.08.2018 14:22
114 mg Antananarivo Clouds 28 1018 37 10000 9 180 02.08.2018 14:21
115 vn Hanoi Clouds 28 1016 69 10000 15 20 02.08.2018 14:21
116 au Darwin Clear 29 1010 30 10000 15 30 02.08.2018 14:22
117 mv Male Clouds 29 1009 61 0 4 3 02.08.2018 14:23
118 eg Kairo Clear 30 1015 48 6000 8 330 02.08.2018 14:22
119 id Jakarta Clouds 30 1008 58 7000 21 30 02.08.2018 14:22
120 ph Manila Clouds 30 1011 55 10000 11 90 02.08.2018 14:21
121 in Nagpur Haze 31 1013 31 5000 8 20 02.08.2018 14:21
122 th Bangkok Clouds 32 1009 55 10000 15 110 02.08.2018 14:21
123 tr Alanya Haze 33 1020 19 6000 15 130 02.08.2018 14:22
124 in Mumbai Smoke 34 1009 59 2500 17 320 02.08.2018 14:22
125 sa Riad Clear 35 1018 24 10000 9 110 02.08.2018 14:21
126 iq Bagdad Clear 36 1016 19 10000 13 270 02.08.2018 14:22
127 qa Doha Haze 36 1013 50 10000 15 60 02.08.2018 14:23
128 ae Dubai Clear 36 1013 34 10000 18 310 02.08.2018 14:21